[[{"header":{"parameterUnit":"m.s-1","parameterCategory":1,"la1":30.2991,"la2":30.254,"lo1":-89.0895,"lo2":-89.0444,"dy":0.0017,"dx":0.0017,"nx":28,"ny":28,"refTime":"2026-01-07T03:00:00:Z","depth":0,"parameterNumber":2,"parameterNumberName":"U-component_of_WINDS"},"data":[0,0,0,0,0,0,0,0,0,0,0,0,0,0,0,0,0,0,0,0,0,0,0,0,0,0,0,0,0,0,0,0,0,0,0,0,0,0,0,0,0,0,0,0,0,0,0,0,0,0,0,0,0,0,0,0,0,0,-4.2697,-4.2697,0,-4.2725,-4.2725,-4.2725,-4.2692,-4.269,-4.2689,-4.2688,-4.2715,-4.2717,-4.2719,0,0,0,0,0,0,0,0,0,0,0,0,0,-4.2614,-4.2615,-4.2697,-4.2697,-4.2697,-4.2725,-4.2725,-4.2725,-4.2692,-4.269,-4.2689,-4.2687,-4.2714,-4.2717,-4.2719,0,0,0,0,0,0,0,0,0,0,0,0,0,-4.2646,-4.2616,-4.2697,-4.2684,-4.2683,-4.2725,-4.2725,-4.2726,-4.2692,-4.269,-4.2688,-4.2687,-4.2714,-4.2716,-4.2719,-4.2774,0,0,-4.2728,-4.2729,0,0,0,0,0,0,0,0,-4.2645,-4.265,-4.2685,-4.2685,-4.2684,-4.2703,-4.2706,-4.2742,-4.2693,-4.2689,-4.2688,-4.2686,-4.2712,-4.2715,-4.2724,-4.2775,-4.2777,-4.2728,-4.273,-4.2731,-4.2732,0,0,0,0,0,0,0,-4.2642,-4.2648,-4.2708,-4.2686,-4.2685,-4.2677,-4.2679,-4.2712,-4.2711,-4.2689,-4.2686,-4.269,-4.2712,-4.2722,-4.2725,-4.2777,-4.2728,-4.2731,-4.2732,-4.2733,-4.2875,-4.2877,0,0,0,0,0,0,-4.2642,-4.2646,-4.2707,-4.2709,-4.2659,-4.268,-4.2683,-4.2699,-4.271,-4.271,-4.2692,-4.2689,-4.2718,-4.2722,-4.2726,-4.279,-4.2731,-4.2734,-4.2735,-4.2873,-4.2876,-4.2878,0,0,0,0,0,0,-4.264,-4.2647,-4.2706,-4.2677,-4.2684,-4.2683,-4.2701,-4.27,-4.271,-4.2712,-4.2712,-4.2703,-4.2717,-4.2722,-4.2763,-4.2791,-4.2735,-4.2738,-4.2871,-4.2874,-4.2877,-4.2921,0,0,0,0,0,0,-4.2638,-4.2647,-4.2668,-4.2678,-4.2685,-4.2742,-4.2703,-4.2702,-4.2715,-4.2711,-4.2722,-4.2722,-4.2716,-4.2759,-4.2765,-4.2794,-4.274,-4.2868,-4.2872,-4.2876,-4.2917,-4.2925,-4.2932,0,0,0,0,0,-4.2635,-4.2679,-4.2669,-4.2676,-4.2711,-4.2744,-4.2748,-4.274,-4.2718,-4.2739,-4.274,-4.2722,-4.2788,-4.2763,-4.277,-4.28,-4.2866,-4.2871,-4.2875,-4.2913,-4.2923,-4.2932,0,0,0,0,0,0,-4.2671,-4.2679,-4.2669,-4.2717,-4.273,-4.2738,-4.2764,-4.2751,-4.277,-4.2765,-4.2754,-4.2756,-4.28,-4.2804,-4.2777,-4.2854,-4.2823,-4.283,-4.2849,-4.2859,-4.2866,-4.2863,-4.2742,0,0,0,0,0,-4.2685,-4.2711,-4.2717,-4.2759,-4.2766,-4.2764,-4.2778,-4.2771,-4.2783,-4.2788,-4.2793,-4.2806,-4.2829,-4.2845,-4.2866,-4.2918,-4.292,-4.2943,-4.295,-4.2957,-4.2961,-4.2989,-4.2999,-4.2893,-4.2893,-4.2893,0,0,-4.2712,-4.2721,-4.2737,-4.2766,-4.2775,-4.2802,-4.2769,-4.2798,-4.2818,-4.2793,-4.2831,-4.2836,-4.2849,-4.2896,-4.2917,-4.2901,-4.2992,-4.2962,-4.2967,-4.2969,-4.2995,-4.3005,-4.3014,-4.2896,-4.2896,-4.2895,0,0,-4.2777,-4.2786,-4.2822,-4.2833,-4.2848,-4.2846,-4.2855,-4.2866,-4.2868,-4.2907,-4.2889,-4.2913,-4.2953,-4.2964,-4.2974,-4.3046,-4.3029,-4.3054,-4.3092,-4.312,-4.3128,-4.3135,-4.316,-4.3169,-4.3059,-4.3059,-4.3059,0,-4.2809,-4.2849,-4.2842,-4.2873,-4.2886,-4.2867,-4.2903,-4.2913,-4.2934,-4.2944,-4.2927,-4.2978,-4.2986,-4.3034,-4.3052,-4.3062,-4.3071,-4.3051,-4.3128,-4.3135,-4.3142,-4.3165,-4.3174,-4.3062,-4.3061,-4.3061,-4.3061,0,-4.2889,-4.2917,-4.2944,-4.2966,-4.2983,-4.3016,-4.3014,-4.3032,-4.3024,-4.3025,-4.3065,-4.3075,-4.3098,-4.311,-4.3102,-4.3158,-4.3148,-4.313,-4.3097,-4.3155,-4.3176,-4.3185,-4.3066,-4.3065,-4.3064,-4.3063,0,0,-4.2973,-4.2992,-4.3002,-4.3012,-4.3029,-4.305,-4.3084,-4.3107,-4.3123,-4.3139,-4.3166,-4.3202,-4.3186,-4.3198,-4.3192,-4.3216,-4.3272,-4.3195,-4.3195,-4.3208,-4.3333,-4.3346,-4.3356,-4.3262,-4.3264,-4.3265,-4.3332,0,-4.3037,-4.3095,-4.309,-4.3145,-4.3171,-4.3154,-4.3183,-4.3196,-4.3198,-4.3221,-4.3224,-4.3249,-4.3226,-4.3234,-4.3257,-4.326,-4.3297,-4.3256,-4.3287,-4.3288,-4.3281,-4.3367,-4.338,-4.3442,-4.334,-4.3342,-4.3343,0,-4.3118,-4.3138,-4.3196,-4.3209,-4.322,-4.3246,-4.3268,-4.329,-4.3305,-4.3305,-4.332,-4.3311,-4.3344,-4.3314,-4.336,-4.3332,-4.3345,-4.3349,-4.3351,-4.3352,-4.3317,-4.3369,-4.3462,-4.347,-4.3356,-4.3355,-4.3354,0,-4.3173,-4.3214,-4.3254,-4.3263,-4.328,-4.3299,-4.3307,-4.332,-4.3335,-4.3355,-4.3364,-4.3388,-4.34,-4.3418,-4.3415,-4.3393,-4.3462,-4.3431,-4.3463,-4.3463,-4.3475,-4.3474,-4.357,-4.3488,-4.3487,-4.3487,-4.3487,0,-4.3243,-4.3279,-4.3279,-4.3303,-4.3343,-4.3338,-4.3377,-4.3383,-4.3395,-4.342,-4.3407,-4.3431,-4.3427,-4.345,-4.3449,-4.3487,-4.3493,-4.3493,-4.3492,-4.3493,-4.3493,-4.35,-4.3495,-4.349,-4.3489,-4.3489,-4.3488,0,-4.331,-4.3311,-4.3353,-4.3367,-4.3371,-4.3399,-4.3411,-4.3434,-4.3436,-4.3468,-4.3476,-4.3479,-4.3507,-4.3507,-4.3538,-4.3537,-4.3583,-4.3578,-4.3578,-4.3576,-4.3607,-4.3603,-4.3708,-4.3722,-4.3632,-4.3633,-4.3634,0,-4.3353,-4.338,-4.3397,-4.3413,-4.3423,-4.3449,-4.3465,-4.3462,-4.3478,-4.3499,-4.352,-4.3546,-4.3567,-4.3612,-4.3617,-4.3642,-4.3636,-4.3671,-4.3639,-4.364,-4.3634,-4.3632,-4.3634,-4.3676,-4.3677,-4.3678,-4.3679,0,-4.343,-4.343,-4.3453,-4.3478,-4.3497,-4.3516,-4.3533,-4.3547,-4.3546,-4.3566,-4.3594,-4.3611,-4.3643,-4.367,-4.3694,-4.3702,-4.369,-4.369,-4.3698,-4.3698,-4.3696,-4.3696,-4.3593,-4.3686,-4.3685,-4.3685,-4.3685,-4.3684,-4.3485,-4.3509,-4.3525,-4.3551,-4.3564,-4.3581,-4.3604,-4.361,-4.3634,-4.366,-4.3658,-4.3689,-4.3705,-4.3736,-4.3746,-4.3771,-4.3758,-4.3771,-4.3773,-4.3776,-4.3779,-4.3695,-4.3776,-4.3775,-4.3775,-4.3775,-4.3775,0,-4.3561,-4.3571,-4.3595,-4.362,-4.3642,-4.3631,-4.365,-4.3668,-4.3696,-4.3712,-4.3734,-4.3767,-4.3793,-4.3802,-4.3827,-4.3845,-4.3841,-4.3852,-4.3849,-4.3851,-4.3789,-4.3779,-4.3855,-4.3855,-4.3855,-4.3855,-4.3855,-4.3855,-4.3602,-4.3641,-4.3643,-4.3689,-4.3698,-4.373,-4.3741,-4.3757,-4.377,-4.3808,-4.383,-4.3836,-4.3849,-4.3875,-4.3899,-4.3901,-4.391,-4.3923,-4.3923,-4.3864,-4.3856,-4.3848,-4.3838,-4.3926,-4.3926,-4.3983,-4.3984,-4.3984]},{"header":{"parameterUnit":"m.s-1","parameterCategory":1,"la1":30.2991,"la2":30.254,"lo1":-89.0895,"lo2":-89.0444,"dy":0.0017,"dx":0.0017,"nx":28,"ny":28,"refTime":"2026-01-07T03:00:00:Z","depth":0,"parameterNumber":3,"parameterNumberName":"V-component_of_WINDS"},"data":[0,0,0,0,0,0,0,0,0,0,0,0,0,0,0,0,0,0,0,0,0,0,0,0,0,0,0,0,0,0,0,0,0,0,0,0,0,0,0,0,0,0,0,0,0,0,0,0,0,0,0,0,0,0,0,0,0,0,3.7452,3.7453,0,3.7486,3.7486,3.7486,3.7463,3.7462,3.7461,3.746,3.7492,3.7493,3.7495,0,0,0,0,0,0,0,0,0,0,0,0,0,3.7369,3.7371,3.7452,3.7453,3.7453,3.7486,3.7486,3.7487,3.7463,3.7462,3.746,3.7459,3.7491,3.7493,3.7495,0,0,0,0,0,0,0,0,0,0,0,0,0,3.7404,3.7371,3.7452,3.7445,3.7445,3.7486,3.7486,3.7487,3.7463,3.7462,3.746,3.7459,3.749,3.7493,3.7496,3.7544,0,0,3.7504,3.7505,0,0,0,0,0,0,0,0,3.7402,3.7407,3.7446,3.7446,3.7446,3.7469,3.7468,3.7506,3.7464,3.7456,3.746,3.7458,3.7485,3.7488,3.7498,3.7546,3.7547,3.7504,3.7506,3.7507,3.7508,0,0,0,0,0,0,0,3.74,3.7406,3.7465,3.7447,3.7446,3.7441,3.7444,3.7475,3.7479,3.7457,3.7455,3.746,3.7485,3.7495,3.7498,3.7547,3.7504,3.7507,3.7508,3.7509,3.7641,3.7643,0,0,0,0,0,0,3.7398,3.7404,3.7464,3.7466,3.742,3.7444,3.7447,3.7463,3.7479,3.748,3.7461,3.7458,3.7491,3.7495,3.7499,3.756,3.7507,3.751,3.7511,3.7639,3.7641,3.7643,0,0,0,0,0,0,3.7396,3.7404,3.7463,3.7435,3.7442,3.7447,3.7464,3.7464,3.7475,3.7482,3.7482,3.7471,3.749,3.7496,3.7534,3.7561,3.7511,3.7513,3.7637,3.764,3.7642,3.7679,0,0,0,0,0,0,3.7394,3.7403,3.7421,3.7435,3.7444,3.7497,3.7466,3.7466,3.748,3.7477,3.7491,3.7492,3.7489,3.753,3.7537,3.7563,3.7516,3.7635,3.7638,3.7642,3.7676,3.7683,3.7689,0,0,0,0,0,3.7391,3.7429,3.7422,3.7429,3.7466,3.7499,3.7503,3.75,3.7482,3.7501,3.7506,3.7492,3.7557,3.7535,3.7542,3.7569,3.7633,3.7637,3.7641,3.7673,3.7682,3.7689,0,0,0,0,0,0,3.7415,3.743,3.7423,3.7466,3.7482,3.7495,3.7517,3.7509,3.7529,3.7525,3.7519,3.7523,3.7564,3.757,3.7546,3.7619,3.7592,3.7598,3.7614,3.7622,3.7629,3.7626,3.7518,0,0,0,0,0,3.7426,3.7451,3.7463,3.75,3.7508,3.7512,3.7526,3.7523,3.7538,3.7544,3.7552,3.7567,3.7591,3.7607,3.7629,3.7677,3.7681,3.77,3.7707,3.7712,3.7717,3.7747,3.7756,3.7657,3.7657,3.7657,0,0,3.7447,3.7459,3.7475,3.7505,3.7517,3.7544,3.7517,3.7546,3.7567,3.7548,3.7586,3.7593,3.7609,3.7654,3.7674,3.766,3.7746,3.7717,3.7722,3.7724,3.7752,3.7761,3.777,3.766,3.7659,3.7659,0,0,3.7501,3.7512,3.7545,3.7559,3.7577,3.758,3.7589,3.7604,3.7608,3.7647,3.7634,3.7659,3.77,3.7713,3.7725,3.779,3.7779,3.7797,3.7832,3.7861,3.7869,3.7876,3.7901,3.791,3.7802,3.7802,3.7802,0,3.7525,3.7566,3.7564,3.7595,3.761,3.7597,3.7632,3.7644,3.7669,3.768,3.7665,3.7719,3.7729,3.7778,3.7795,3.7804,3.7815,3.7795,3.7868,3.7875,3.7881,3.7905,3.7914,3.7805,3.7804,3.7804,3.7804,0,3.7597,3.7625,3.7651,3.7677,3.7695,3.7728,3.7732,3.775,3.7746,3.7751,3.7792,3.7805,3.7831,3.7842,3.7837,3.7892,3.7884,3.7868,3.7841,3.7893,3.7916,3.7924,3.7808,3.7807,3.7806,3.7806,0,0,3.7664,3.7692,3.7702,3.7715,3.7737,3.7759,3.7793,3.7821,3.7838,3.7856,3.7885,3.7923,3.791,3.7924,3.7921,3.7946,3.8,3.7928,3.7928,3.7943,3.8064,3.8077,3.8087,3.7993,3.7995,3.7996,3.8063,0,3.7721,3.778,3.7781,3.7836,3.7864,3.7854,3.7884,3.7901,3.7908,3.7933,3.794,3.7967,3.7947,3.7956,3.798,3.7988,3.8024,3.7983,3.8021,3.8022,3.8018,3.8098,3.8111,3.8174,3.8072,3.8073,3.8074,0,3.7794,3.7818,3.7876,3.7898,3.791,3.7936,3.7964,3.7988,3.8008,3.8011,3.803,3.8024,3.806,3.8032,3.8083,3.8055,3.8071,3.8077,3.808,3.8083,3.8052,3.8106,3.8193,3.8203,3.8088,3.8087,3.8086,0,3.784,3.7886,3.7929,3.794,3.7966,3.7986,3.7997,3.8016,3.8034,3.8058,3.807,3.8097,3.8112,3.8134,3.8137,3.8115,3.8188,3.816,3.8193,3.8193,3.8209,3.8208,3.8301,3.8217,3.8217,3.8217,3.8217,0,3.7904,3.7941,3.795,3.7976,3.8018,3.802,3.8061,3.8071,3.8089,3.8117,3.811,3.8136,3.8138,3.8166,3.8168,3.8212,3.8218,3.8222,3.8223,3.8224,3.8223,3.8234,3.823,3.8219,3.8219,3.8218,3.8218,0,3.7962,3.797,3.8016,3.8038,3.8044,3.8074,3.8093,3.8119,3.8126,3.8163,3.8171,3.8182,3.8215,3.822,3.8258,3.826,3.8313,3.8307,3.8306,3.8306,3.834,3.8337,3.8444,3.8459,3.8364,3.8365,3.8366,0,3.8003,3.8031,3.8058,3.8077,3.8091,3.8121,3.8141,3.8144,3.8164,3.8192,3.8215,3.8248,3.8274,3.8328,3.8339,3.8369,3.8366,3.8401,3.837,3.8371,3.8369,3.8367,3.8371,3.8407,3.8408,3.8409,3.841,0,3.8075,3.8079,3.8107,3.8138,3.8162,3.8186,3.8209,3.8225,3.8232,3.8256,3.8291,3.8311,3.8352,3.8386,3.8416,3.8428,3.8421,3.842,3.843,3.8431,3.843,3.8434,3.8324,3.8417,3.8416,3.8416,3.8415,3.8415,3.8127,3.8154,3.8178,3.8211,3.8229,3.8252,3.8278,3.829,3.8319,3.8354,3.8354,3.8393,3.8416,3.8457,3.8471,3.8502,3.8491,3.8504,3.8508,3.8511,3.8516,3.8425,3.8508,3.8507,3.8507,3.8507,3.8507,0,3.8201,3.8217,3.8247,3.8281,3.8308,3.8301,3.8327,3.8349,3.8384,3.8407,3.8434,3.8476,3.8509,3.8525,3.8558,3.858,3.8578,3.8589,3.8587,3.8591,3.8523,3.8512,3.859,3.859,3.859,3.859,3.859,3.859,3.8242,3.8288,3.8295,3.8351,3.8366,3.8406,3.8422,3.8443,3.8462,3.8509,3.8538,3.8548,3.8569,3.8604,3.8635,3.8639,3.8652,3.8665,3.8668,3.8604,3.8595,3.8587,3.8577,3.8668,3.8668,3.8733,3.8734,3.8734]}]]